CZ-2D DEB, 43487

Orbit data source: Space-Track

CZ-2D DEB, 43487 is space debris in SSO originally from a launch on Sat, 02 Jun 2018 UTC launched from the Jiuquan Satellite Launch Center, China (JSC). Debris objects in space refer to the collection of defunct objects orbiting the Earth. Examples of debris include non-operational satellites, rocket bodies, and fragments generated from explosions, collisions, or faulty payload assembly.

Loading next visibility...
Identifier
43487, 2018-048D
Orbit
SSO
Country
Flag of CNCN / PRC
Related business
Manufacturer
CALT
Mission
Spacecraft
Bus & Motor
Unknown
Mass
1 kg wet, 1 kg dry
Launch date (UTC)
2018-06-02 (8 years ago)
Launch vehicle
Unknown
Launch site
Jiuquan Satellite Launch Center, China (JSC)
Object type
Payload
Rocket body
Debris
Shape & HBR
Cone, 0.1 m
Radar Cross Section
0.025 m², Small (<0.1 m²)

Expand to show TLE details & history
Last TLE update: 16 hours ago

TLE from 16 hours ago
0 CZ-2D DEB
1 43487U 18048D   26125.47477645  .00003124  00000-0  32793-3 0  9994
2 43487  97.6118 133.8312 0025415 200.9400 159.0779 14.89960887427688
Epoch: 2026-05-05T11:23Z
TLE epoch observation values (Epoch: 2026-05-05T11:23:40.685Z)
Latitude
-0.00007°
Longitude
99.56259°
Altitude
617.672 km
Speed
7.541 km/s
True Right ascension
08h 55m 19s
True Declination
0° 00' 00"
Sunlit
Object was in daylight at epoch
Visualization orbit readout
Latitude
Unknown
Longitude
Unknown
Altitude
Unknown
Speed
Unknown
Apparent Right ascension
Unknown
Apparent Declination
Unknown
Sunlit
N/A
Visualization observer readout
Local Sidereal Time
11:02:23
Azimuth
Unknown
Elevation
Unknown
Doppler factor
Unknown
Orbital elements
Apogee altitude
612.795 km
Perigee altitude
577.35 km
Semi-major axis
6,973.21 km
Eccentricity
0.00254
Inclination
97.6118°
RAAN
133.8312°
Arg. of periapsis
200.94°
True anomaly
159.18159°
Mean anomaly
159.0779°
Eccentric anomaly
159.12978°
Mean motion
3.7273 °/min
Orbital period
96.58 mins
BSTAR
0.00032793
Loading maneuver chart data...
Computing Atmospheric mass density...
Loading historical data...
Loading historical data...
Loading historical data...
Loading historical data...
Loading historical data...
Loading historical data...
Loading historical data...
Other satellites on launch #48 in the year 2018 (2018-06-02 UTC)

Documentation

Showing up to 5 results
|